C/2014 R3 ( PanSTARRS )

Japanese version
Home page
Updated on May 22, 2017

---------------------------------------------------------------------

* Profile

Discovery Date September 6, 2014
Magnitude 20.1 mag
Discoverer Pan-STARRS 1 telescope (Haleakala)

* Pictures

* Orbital Elements

Epoch 2016 July 31.0 TT = JDT 2457600.5
T 2016 Aug. 7.88049 TT                                  MPCW
q   7.2753991            (2000.0)            P               Q
z  +0.0000178      Peri.  113.39999     -0.36315070     -0.82312365
 +/-0.0000004      Node   334.11211     -0.21700404     +0.53038798
e   0.9998708      Incl.   90.83746     +0.90610751     -0.20286952
From 395 observations 2014 Sept. 6-2017 Mar. 5, mean residual 0".4.

* Magnitudes Graph

        m1 = -22 + 5 log d + 40 log r(t - 50)

---------------------------------------------------------------------

The orbital elements are published on M.P.E.C. 2017-E59.
The magnitudes graphs are made with Comet for Windows.

---------------------------------------------------------------------

Copyright(C) Seiichi Yoshida (comet@aerith.net). All rights reserved.